ATLAS D DEB, 2327

Orbit data source: Space-Track

ATLAS D DEB, 2327 is space debris in LEO originally from a launch on Thu, 14 Jul 1966 UTC launched from the Air Force Western Test Range (AFWTR). Debris objects in space refer to the collection of defunct objects orbiting the Earth. Examples of debris include non-operational satellites, rocket bodies, and fragments generated from explosions, collisions, or faulty payload assembly.

Loading next visibility...
Identifier
2327, 1966-063B
Orbit
LEO
Country
Flag of USUS
Related business
Manufacturer
Goodyear
Mission
Spacecraft
Bus & Motor
CONTAINER, Unknown motor
Mass
2 kg wet, 2 kg dry
Launch date (UTC)
1966-07-14 (60 years ago)
Launch vehicle
Unknown
Launch site
Air Force Western Test Range (AFWTR)
Object type
Payload
Rocket body
Debris
Shape & HBR
Unknown
Radar Cross Section
Medium (>0.1 m² and <1 m²)

Expand to show TLE details & history
Last TLE update: 12 hours ago

TLE from 12 hours ago
0 ATLAS D DEB
1 02327U 66063B   26174.92882360  .00001424  00000-0  69477-3 0  9990
2 02327 144.1960 320.0585 0031028 211.7447 148.1369 14.05697407 39034
Epoch: 2026-06-23T22:17Z
TLE epoch observation values (Epoch: 2026-06-23T22:17:30.359Z)
Latitude
0.00003°
Longitude
73.58861°
Altitude
892.304 km
Speed
7.398 km/s
True Right ascension
21h 20m 14s
True Declination
0° 00' 00"
Sunlit
Object was in full shadow at epoch
Visualization orbit readout
Latitude
Unknown
Longitude
Unknown
Altitude
Unknown
Speed
Unknown
Apparent Right ascension
Unknown
Apparent Declination
Unknown
Sunlit
N/A
Visualization observer readout
Local Sidereal Time
21:22:22
Azimuth
Unknown
Elevation
Unknown
Doppler factor
Unknown
Orbital elements
Apogee altitude
899.605 km
Perigee altitude
854.582 km
Semi-major axis
7,255.23 km
Eccentricity
0.0031
Inclination
144.196°
RAAN
320.0585°
Arg. of periapsis
211.7447°
True anomaly
148.32398°
Mean anomaly
148.1369°
Eccentric anomaly
148.2305°
Mean motion
3.5121 °/min
Orbital period
102.5 mins
BSTAR
0.00069477
Loading maneuver chart data...
Computing Atmospheric mass density...
Loading historical data...
Loading historical data...
Loading historical data...
Loading historical data...
Loading historical data...
Loading historical data...
Loading historical data...

Documentation

Showing up to 5 results
|